Location: Branche des Alpilles
(43.6087°N, 4.6976°E)
Time: 12:35:33
(UTC+00:00)

Cosmos 1500 - Pass Details

Date: 30 November 2020
Orbit: 498 x 519 km, 82.5° (Epoch: 25 January)

Event Time Altitude Azimuth Distance (km) Brightness Sun altitude
Rises 17:18:24 0° 3° (N) 2,636 6.6 -12.8°
Reaches altitude 10° 17:20:49 10° 17° (NNE) 1,748 5.5 -13.2°
Maximum altitude 17:24:02 25° 74° (ENE) 1,073 4.2 -13.8°
Drops below altitude 10° 17:27:14 10° 131° (SE) 1,744 5.6 -14.3°
Sets 17:29:38 0° 145° (SE) 2,628 6.6 -14.8°
